Vorticity
7 1 2 2 7 5 9 6 3 12 5 4 1 11 -10 4 -2 -12 -2 6 25 -18
6 5 5 4 1 7 7 13 17 9 11 1 -0 13 12 -11 11 -8 11 31 -19 -9
2 4 3 4 10 12 12 6 0 14 5 -2 -5 9 10 1 1 49 -26 -1 18 -5
3 4 9 8 8 7 8 3 13 5 -4 11 -1 7 10 13 20 10 -10 -11 12 13
5 7 7 7 6 13 7 12 7 4 -4 6 -1 7 6 12 20 -10 -2 14 5 11
7 10 5 6 10 9 2 -0 14 11 10 6 5 6 7 9 7 10 10 6 1 24
12 9 7 8 11 9 10 12 6 9 6 6 8 5 8 9 8 15 6 1 1 -5
9 10 10 9 8 8 7 9 7 8 6 9 5 8 9 9 10 7 7 9 -1 8
7 7 6 6 6 7 7 6 7 7 7 7 10 9 10 10 9 7 7 7 6 10
6 5 6 6 6 6 7 7 7 7 9 11 8 9 10 7 7 6 6 9 12 14
6 6 5 5 6 8 8 8 8 8 9 8 10 11 8 7 6 9 13 12 10 10
5 5 6 6 8 8 8 7 8 9 9 11 9 8 7 9 11 10 8 6 9 8
5 5 7 8 8 8 8 9 10 10 13 10 8 12 12 9 7 9 10 9 9 8
6 8 8 6 7 9 9 9 12 12 8 3 1 3 5 7 8 9 9 9 10 10
Height
5756 5756 5757 5756 5754 5752 5749 5745 5742 5738 5736 5733 5729 5724 5719 5714 5708 5702 5694 5689 5682 5676
5751 5751 5750 5748 5746 5744 5740 5736 5733 5731 5727 5724 5720 5715 5708 5704 5698 5691 5683 5676 5670 5661
5748 5746 5744 5742 5738 5735 5731 5728 5725 5723 5720 5715 5710 5704 5699 5692 5684 5677 5670 5662 5656 5647
5741 5739 5736 5734 5730 5726 5723 5719 5716 5714 5709 5704 5699 5693 5686 5682 5673 5664 5655 5650 5642 5632
5733 5730 5727 5725 5721 5717 5713 5710 5707 5702 5698 5693 5688 5680 5673 5668 5661 5652 5643 5634 5624 5617
5725 5721 5718 5715 5711 5708 5704 5702 5696 5692 5688 5681 5674 5666 5659 5651 5644 5636 5628 5620 5612 5602
5716 5713 5710 5706 5702 5697 5694 5689 5684 5679 5673 5667 5659 5652 5644 5637 5630 5621 5613 5605 5597 5588
5707 5704 5700 5696 5692 5687 5682 5677 5672 5666 5659 5652 5647 5640 5631 5622 5615 5608 5600 5590 5581 5571
5697 5693 5689 5684 5679 5675 5669 5664 5658 5652 5645 5639 5632 5624 5616 5608 5600 5592 5583 5574 5564 5553
5685 5681 5677 5673 5667 5662 5657 5651 5645 5638 5631 5624 5616 5608 5599 5591 5584 5576 5566 5557 5546 5535
5674 5670 5666 5661 5655 5650 5644 5637 5630 5623 5615 5607 5599 5591 5583 5576 5569 5560 5550 5539 5529 5518
5663 5658 5654 5648 5642 5635 5629 5622 5614 5607 5599 5591 5583 5576 5568 5559 5552 5543 5533 5521 5511 5500
5651 5645 5639 5633 5627 5621 5613 5607 5599 5591 5585 5577 5569 5560 5550 5541 5533 5526 5516 5506 5494 5482
5638 5632 5626 5619 5613 5606 5599 5591 5584 5577 5569 5561 5553 5543 5533 5522 5512 5503 5496 5485 5473 5459